Location: Observatorio Las Palmas
(29.0667°N, 110.9333°W)
Time: 04:53:46
(UTC-07:00)

Skynet4D Del rocket - Visible Passes

Search period start: 05 March 2015 00:00
Search period end: 15 March 2015 00:00
Orbit: 763 x 1291 km, 26.9° (Epoch: 02 March)

Date Brightness Start Highest point End Pass type
(mag) Time Alt. Az. Time Alt. Az. Time Alt. Az.
09 Mar 6.6 05:56:44 10° SSW 06:02:06 19° SSE 06:07:32 10° ESE visible
10 Mar 6.8 04:48:12 10° SSE 04:50:36 12° SSE 04:53:24 10° SE visible
11 Mar 6.3 05:25:49 10° SSW 05:31:56 23° SSE 05:38:09 10° ESE visible
12 Mar 6.6 04:16:41 10° S 04:20:28 15° SSE 04:24:49 10° ESE visible
12 Mar 5.7 06:05:44 10° SW 06:13:16 38° SSE 06:20:38 10° E visible
13 Mar 6.0 04:55:54 12° SSW 05:01:45 27° SSE 05:08:31 10° E visible
14 Mar 6.3 03:49:24 17° SSE 03:50:18 18° SSE 03:55:34 10° ESE visible
14 Mar 5.4 05:35:22 10° SW 05:43:03 43° SSE 05:50:48 10° E visible
